Aérodrome :
LOGIN :

S'inscrire | Disclaimer

   EN    FR    IT 

 










Légende :    VFR   VFR Marginal   IFR   IFR Intensif   IFR Très Intensif
Visi : 
Plafond : 
>= 8 km
>= 3000ft
5 à 8 km
1000 à 3000 ft
1500m à 5 km
500 à 1000 ft
800 à 1500m
200 à 500 ft
< 800m
< 200 ft
Symboles :   Orages  Brouillard  Fortes neiges  Fortes précipitations  Vent > 20 kt
SIGMETs :   Divers  Orages  Givrage  Turbulence  Onde Orograph.  Cendres Volcan.







- Altitude de l'aérodrome : 7 ft
- Code IATA : ESH
- Voir les cartes d'approche


EGKA - Shoreham

DERNIER METAR :
  • 131550Z 05009KT 9999 FEW028 03/M01 Q1016

METARs EXPIRÉS :
  • 131520Z 07010KT 9999 FEW028 05/M00 Q1016
  • 131450Z 08011KT 9999 FEW028 05/M00 Q1016
  • 131420Z 08013KT 9999 SCT030 06/M00 Q1016
  • 131350Z 08011KT 9999 SCT030 05/M00 Q1016
  • 131320Z 08013KT 9999 SCT028 05/M00 Q1016

TAF TAF EGKA
Valide du 13 à 15h jusqu'au 13 à 19h UTC


131356Z 1315/1319 09014KT 9999 SCT025
ATIS : +44 1273 467 372
Pas de NOTAMs connus pour ce terrain.



MET'MAP, la Météo Aéronautique d'un coup d'oeil ! - Copyright ORBIFLY Décembre 2007 - Disclaimer

ORBIFLY MET'MAP TEAM :

Programmation & Développement : Alexandra Zaïnal
Conception & Développement : Baudouin d'Aumeries
Co-Programmation & Développement : Marc-Olivier Méhu
Soutien technique & logistique : Manuel Goepfert

Contact : metmap@orbifly.com




SOURCES & CREDITS :

   NOAA